Погода Жангизтобе

Погода Жангизтобе : погода сейчас, прогноз погоды и архив. Всё, что Вы хотите узнать о погоде Жангизтобе!

Хотите узнать прогноз погоды Жангизтобе? Тогда Вам сюда: Погода Жангизтобе

Поиск расширенной информации на нашем сайте:

Другие новости

Новости СМИ2

Главная страница сайта

Новости сайта

02.10.2013

Напоминаем, что на нашем новом сайте вы можете получить высокодетализированные прогнозы погоды по пунктам России, СНГ и мира (включающие важные для авиации метеовеличины, такие как направление и скорость ветра, видимость, явления погоды, количество и форма облачности, нижняя и верхняя граница облачности), а также ознакомиться с разнообразными материалами по авиационной метеорологии и подборкой полезных ссылок на эту тему.

Сайт Метеоцентр.Азия посвящён разработке технологий оптимизации авиаметеорологического обслуживания, включая проектирование и перспективное создание нескольких автоматизированных авиаметеорологических систем:
- система выпуска высокодетальных прогностических карт явлений погоды для нижнего воздушного пространства по России и ближнему зарубежью;
- система верификации прогнозов TAF (выпускаемых синоптиками официальных АМСГ РФ и ближнего зарубежья) и AUTOTAF (выпускаемых сайтом Метеоцентр.Азия) - выявление ошибок, онлайн-сопоставление с фактической погодой METAR, автоматическое внесение коррективов в прогнозы при резком отклонении фактической погоды от прогноза, подсчёт оправдываемости прогнозов по элементам и в целом;
- система обработки, анализа и отображения авиаметеорологической информации для применения провайдерами метеорологической информации.


Погода Жангизтобе - сегодня

Время (UTC), дата Ветер
(°,м/с) 
Видим.   Явления Облачность Т
(°С)
Тd
(°С)
f(%) Тe
(°С)
Pmin
(гПа)
dP
(гПа)
Po
(мм)
O2
(г/м3)
Тmin Tmax R s Состояние
почвы
00 24.03.17 190 (Ю) н/о    ясно 
-9.4 -11.4 85 -15  1034.3  -0.5  732  306           
03 24.03.17 160 (Ю) 20000 м    3/0 верхняя 
[Ci]
-5.8 -9.6 74 -11  1032.5  -0.9  731  302        равномерный
мокрый или
старый снег
100% 
06 24.03.17 150 (ЮВ) 18-20{26}  20000 м    4/0 верхняя 
[Ci]
-2.5 -5.7 79 -10  1027  -4.5  728  296  -10.8         
09 24.03.17 150 (ЮВ) 18-25{28}  20000 м    8/0 верхняя 
[Ci]
-1.8 -5.9 74 -9  1026.1  -0.7  727  296           
12 24.03.17 150 (ЮВ) 18-21{25}  20000 м    6/0 верхняя 
[Ci]
-2.9 -7 73 -10  1025.3  -1  726  297           
15 24.03.17 150 (ЮВ) 16-18{23}  н/о    8/8 1000 м 
[Sc]
-3.9 -7.5 76 -11  1025.3  -0.2  726  298    -1.3       
18 24.03.17 160 (Ю) 15-20{22}  н/о    10/10 1000 м 
[Sc]
-1.8 -6.3 71 -8  1023.9  -0.9  726  295    -1.3       
21 24.03.17 160 (Ю) 16-21{24}  н/о    10/10 1000 м 
[Sc]
-1.6 -6.7 68 -8  1022.1  -1.6  724  294           
00 25.03.17 160 (Ю) 17-20{23}  н/о    10/10 1000 м 
[Sc]
-1.2 -6.9 65 -8  1021.4  -0.6  724  294           
03 25.03.17 160 (Ю) 16-19{23}  20000 м    10/10 1000 м 
[Sc]
-2.5 -8.8 62 -9  1021.3  -0.4  724  295        равномерный
мокрый или
старый снег
100% 
06 25.03.17 160 (Ю) 16-17{23}  20000 м    10/10 1000 м 
[Sc]
-1.4 -8 61 -8  1022.4  1.3  725  294  -4.1         
09 25.03.17 160 (Ю) 15-16{22}  20000 м    10/10 1000 м 
[Sc]
-0.5 -6.7 63 -7  1021.6  -0.6  724  293           
12 25.03.17 210 (ЮЗ) 15-16{18}  20000 м    10/10 1000 м 
[Sc]
+0 -6.3 63 -6  1022.9  1.3  725  293           
15 25.03.17 200 (Ю) 3{15}  н/о    9/9 1000 м 
[Sc]
-0.1 -5.7 66 -2  1023.3  0.4  725  293    +0.7       
18 25.03.17 200 (Ю) н/о    6/6 1000 м 
[Sc]
-0.3 -4.6 73 -1  1024.5  1.1  726  293    +0.7       
21 25.03.17 330 (СЗ) н/о    4/4 1000 м 
[Sc]
-2.5 -6.5 74 -2  1026.1  1.1  727  296           
00 26.03.17 050 (СВ) н/о  дымка  8/8 1000 м 
[Sc]
-2.3 -3.8 89 -2  1027.2  1.1  728  296           
03 26.03.17 360 (С) 0500 м  туман  10/10 1000 м 
[Sc]
-2.2 -3.7 89 -2  1027.6  0.4  728  296        равномерный
мокрый или
старый снег
100% 
06 26.03.17 350 (С) 20000 м  {туман}  8/8 1000 м 
[Sc]
-1.4 -3.4 86 -1  1025.1  -2.2  727  295  -3         
09 26.03.17 350 (С) 20000 м    6/6 1000 м 
[Sc]
-0.4 -1.6 92 1021.6  -3.1  724  292           
12 26.03.17 150 (ЮВ) 20000 м    4/0 средняя, верхняя 
[Ac und|Ci]
+0 -4.5 72 +1  1019.1  -2.3  723  292           
15 26.03.17 200 (Ю) н/о    6/6 1000 м 
[Sc]
-0.3 -4.6 73 -1  1024.5  1.1  726  293    +0.7       
18 26.03.17 150 (ЮВ) н/о  слаб. ливневой дождь  10/10 1000 м кучево-дожд. 
[Cb calv]
+3.5 +1.2 85 +1  1015.4  -2.3  720  286    +0.6       
21 26.03.17 200 (Ю) н/о  в посл. час ливневой дождь  10/10 1000 м кучево-дожд. 
[Cb calv]
+1.9 -2.4 73 +1  1017.8  1.9  722  289           
00 27.03.17 200 (Ю) н/о  {ливн. осадки}  10/10 1000 м кучево-дожд. 
[Cb calv]
+0 -1.4 90 +1  1020.7  2.4  724  292           
Время (UTC), дата Ветер
(°,м/с) 
Видим.   Явления Облачность Т
(°С)
Тd
(°С)
f(%) Тe
(°С)
Pmin
(гПа)
dP
(гПа)
Po
(мм)
O2
(г/м3)
Тmin Tmax R s Состояние
почвы

Для получения пояснительной информации подведите курсор к названию столбца.

ПОГОДА Жангизтобе - архив

Всё, что Вы хотите узнать о погоде Жангизтобе - удобно и подробно!

Выберите нужную дату (начиная с 1 января 2015* года) и нажмите кнопку "Найти".
Будут отображены архивные сводки погоды по пункту Жангизтобе, начиная с указанной даты.


Отображать данные в формате CSV (для использования в таблицах Excel)


Внимание! Наш архив погоды предназначен исключительно для личного некоммерческого использования в познавательных целях. Если Вам необходимы официальные справки о состоянии погоды (для производственных, юридических, коммерческих и т.п. целей), обращайтесь в органы Росгидромета.

*Примечание: данная дата относится к архиву по метеостанциям СССР (Россия, СНГ, Балтия).
Архив по метеостанциям Зарубежной Европы и Азии (кроме Китая) хранится 10 дней, по другим регионам земного шара (Китай, Африка, Америка, Австралия, Океания) - 1 день.

Жангизтобе - район местоположения метеостанции


Название, широта, долгота, высота метеостанции:
Жангизтобе 49.2°ш. 81.2°д. 455 м над ур. моря [Казахстан]

Дополнительная информация

В oтличие oт бoльшинства пoгoдных сайтoв мы публикуем пoдрoбную метеoинфoрмацию в детальнoм прoфессиoнальнoм фoрмате.

Характеристики температуры и влажнoсти вoздуха измеряются на высoте 2 м в тени вдали oт зданий и деревьев.
Скoрoсть ветра измеряется на высoте 10 м (на урoвне рoста челoвека скoрoсть ветра ниже в 1.5-2 раза). Если метеoстанция нахoдится в гoрoде или в лесу, тo скoрoсть ветра занижена на 2-4 м/с пo сравнению с oткрытым местoм. Скoрoсть ветра над акватoриями крупных рек и oзёр, а также на вершинах хoлмoв на 2-5 м/с выше, чем в oбычных услoвиях.
Атмoсфернoе давление в разных тoчках местнoсти мoжет значительнo oтличаться oт давления на метеoстанции, в зависимoсти oт услoвий рельефа (при пoдъёме на 10 м давление пoнижается примернo на 1 мм рт.ст.).